CDT,Max TemperatureF,Mean TemperatureF,Min TemperatureF,Max Dew PointF,MeanDew PointF,Min DewpointF,Max Humidity, Mean Humidity, Min Humidity, Max Sea Level PressureIn, Mean Sea Level PressureIn, Min Sea Level PressureIn, Max VisibilityMiles, Mean VisibilityMiles, Min VisibilityMiles, Max Wind SpeedMPH, Mean Wind SpeedMPH, Max Gust SpeedMPH,PrecipitationIn, CloudCover, Events, WindDirDegrees
2012-10-1,67,53,38,49,43,37,93,69,45,29.96,29.91,29.85,10,10,10,14,0,28,0.00,0,,175
2012-10-2,73,56,39,50,46,39,100,72,44,29.95,29.90,29.86,10,10,6,10,3,15,0.00,0,,16
2012-10-3,73,55,37,52,44,39,100,69,38,30.00,29.96,29.93,10,5,0,13,3,31,0.00,1,Fog,130
2012-10-4,65,55,44,51,44,31,86,63,39,30.14,30.01,29.94,10,10,10,14,8,23,T,2,,234
2012-10-5,51,44,37,30,26,22,70,52,34,30.16,30.11,30.07,10,10,10,15,6,83,0.00,1,,280
2012-10-6,48,43,37,27,26,24,59,52,45,30.22,30.16,30.07,10,10,10,17,7,24,0.00,7,,310
2012-10-7,51,44,37,26,21,15,64,44,24,30.21,30.16,30.09,10,10,10,8,5,12,0.00,4,,271
2012-10-8,61,49,37,31,27,19,59,46,32,30.10,29.99,29.88,10,10,10,24,12,33,T,1,Rain,196
2012-10-9,61,51,40,45,37,31,89,65,41,29.91,29.85,29.76,10,9,3,17,8,25,0.15,6,Rain,236
2012-10-10,51,43,34,34,27,23,85,61,36,30.15,30.07,29.92,10,10,10,17,6,29,0.00,2,,270
2012-10-11,62,49,36,38,30,21,58,46,34,30.34,30.10,30.01,10,10,10,18,10,25,T,5,Rain,273
2012-10-12,53,39,24,33,23,16,88,56,24,30.50,30.39,30.26,10,10,10,15,6,22,T,0,,130
2012-10-13,63,53,42,61,48,31,96,83,70,30.22,29.94,29.73,10,4,1,18,9,23,0.86,8,Rain-Thunderstorm,177
2012-10-14,63,55,46,63,54,41,100,91,82,29.80,29.60,29.48,10,5,0,23,8,29,1.74,8,Fog-Rain,293
2012-10-15,60,50,39,42,38,34,86,63,40,29.97,29.90,29.80,10,10,10,14,4,22,0.00,1,,313
2012-10-16,69,55,41,52,45,39,83,64,45,29.93,29.69,29.45,10,10,10,26,11,33,T,2,,168
2012-10-17,66,59,51,56,52,47,96,74,52,29.45,29.37,29.28,10,7,2,20,8,25,0.62,6,Rain,205
2012-10-18,51,48,44,46,41,39,86,81,76,29.43,29.33,29.26,10,9,4,16,9,22,0.05,8,Rain,200
2012-10-19,53,47,40,43,42,38,92,82,71,29.67,29.50,29.40,10,9,3,14,5,29,0.07,7,Rain,54
2012-10-20,59,48,37,40,38,35,92,70,47,29.94,29.80,29.68,10,10,10,13,4,24,0.00,2,,307
2012-10-21,67,51,34,47,42,33,92,70,48,30.02,29.96,29.93,10,10,5,16,6,25,0.00,0,,153
2012-10-22,61,55,48,59,54,46,100,89,77,29.95,29.92,29.88,10,4,0,15,3,30,0.51,7,Fog-Rain-Thunderstorm,77
2012-10-23,66,61,55,63,58,54,100,94,87,29.93,29.88,29.83,10,2,0,14,7,18,0.15,8,Fog-Rain-Thunderstorm,121
2012-10-24,76,68,60,64,62,59,100,84,68,29.89,29.84,29.75,10,8,4,17,9,56,0.00,6,,175
2012-10-25,70,54,38,63,51,28,89,77,64,30.11,29.73,29.57,10,7,1,23,14,33,0.41,7,Rain-Thunderstorm,261
2012-10-26,48,40,32,28,26,24,70,56,42,30.38,30.30,30.13,10,10,10,17,7,28,0.00,1,,310
2012-10-27,45,35,24,28,22,16,92,63,33,30.39,30.35,30.32,10,10,10,15,4,18,0.00,1,,351
2012-10-28,49,37,24,28,23,19,78,60,42,30.39,30.36,30.32,10,10,10,15,4,17,0.00,0,,19
2012-10-29,51,37,23,31,23,19,92,61,29,30.39,30.31,30.19,10,10,7,16,7,25,0.00,0,,356
2012-10-30,49,41,33,27,23,18,70,50,29,30.16,30.00,29.89,10,10,10,59,15,91,0.00,1,,340
2012-10-31,50,40,29,29,22,15,78,55,31,29.92,29.90,29.85,10,10,10,17,8,43,0.00,0,,314